,,Stat6,,Stat2,,Stat8,,Stat9,,Stat10,,Wind1,,Wind1,
time,status,PA1M_AVG,status,PR1M_SUM,status,RH1M_AVG,status,SR1M_AVG,status,TA1M_AVG,status,W1dAve1m,status,W1sAve1m,
2004-11-28, 00:00:00,VALID,919.114,VALID,0.4,VALID,100,VALID,0.0509425,VALID,19.7459,VALID,165,VALID,0.696403,
2004-11-28, 00:01:00,VALID,919.114,VALID,0.4,VALID,100,VALID,0.0339617,VALID,19.6806,VALID,139,VALID,1.19874,
2004-11-28, 00:02:00,VALID,919.133,VALID,0.4,VALID,100,VALID,-0.0169808,VALID,19.6595,VALID,134,VALID,1.2918,
2004-11-28, 00:03:00,VALID,919.146,VALID,0.4,VALID,100,VALID,-0.101885,VALID,19.585,VALID,140,VALID,1.60099,
2004-11-28, 00:04:00,VALID,919.147,VALID,0.4,VALID,100,VALID,-0.0849042,VALID,19.5082,VALID,149,VALID,1.7117,
2004-11-28, 00:05:00,VALID,919.161,VALID,0.4,VALID,100,VALID,-0.0849042,VALID,19.4436,VALID,135,VALID,1.25497,
2004-11-28, 00:06:00,VALID,919.155,VALID,0.6,VALID,100,VALID,-0.0679233,VALID,19.4083,VALID,156,VALID,1.20617,
2004-11-28, 00:07:00,VALID,919.149,VALID,0.6,VALID,100,VALID,-0.0679233,VALID,19.3495,VALID,138,VALID,1.7282,
2004-11-28, 00:08:00,VALID,919.154,VALID,0.6,VALID,100,VALID,0.0679233,VALID,19.3192,VALID,150,VALID,1.17435,
2004-11-28, 00:09:00,VALID,919.148,VALID,0.6,VALID,100,VALID,0.0339617,VALID,19.3199,VALID,145,VALID,1.65396,
2004-11-28, 00:10:00,VALID,919.135,VALID,0.4,VALID,100,VALID,0.0169808,VALID,19.3097,VALID,141,VALID,1.40572,
2004-11-28, 00:11:00,VALID,919.148,VALID,0.4,VALID,100,VALID,0,VALID,19.31,VALID,151,VALID,1.07871,
2004-11-28, 00:12:00,VALID,919.162,VALID,0.2,VALID,100,VALID,0.0339617,VALID,19.3005,VALID,135,VALID,1.1372,
2004-11-28, 00:13:00,VALID,919.18,VALID,0.2,VALID,100,VALID,0.0509425,VALID,19.2869,VALID,133,VALID,0.754906,
2004-11-28, 00:14:00,VALID,919.189,VALID,0,VALID,100,VALID,0,VALID,19.2876,VALID,110,VALID,0.817882,
2004-11-28, 00:15:00,VALID,919.193,VALID,0.2,VALID,100,VALID,0.0339617,VALID,19.2904,VALID,66,VALID,0.795313,
2004-11-28, 00:16:00,VALID,919.204,VALID,0.2,VALID,100,VALID,0,VALID,19.31,VALID,49,VALID,0.852493,
2004-11-28, 00:17:00,VALID,919.216,VALID,0,VALID,100,VALID,0.0169808,VALID,19.3197,VALID,62,VALID,0.503472,
2004-11-28, 00:18:00,VALID,919.218,VALID,0.2,VALID,100,VALID,0.0339617,VALID,19.3097,VALID,78,VALID,0.499818,
2004-11-28, 00:19:00,VALID,919.217,VALID,0.2,VALID,100,VALID,0.0339617,VALID,19.3068,VALID,74,VALID,0.497275,
2004-11-28, 00:20:00,VALID,919.225,VALID,0,VALID,100,VALID,0,VALID,19.3038,VALID,72,VALID,0.477471,
2004-11-28, 00:21:00,VALID,919.21,VALID,0.2,VALID,100,VALID,0,VALID,19.2913,VALID,72,VALID,0.184775,
2004-11-28, 00:22:00,VALID,919.204,VALID,0.2,VALID,100,VALID,0.0339617,VALID,19.2938,VALID,114,VALID,0.530523,
2004-11-28, 00:23:00,VALID,919.182,VALID,0.2,VALID,100,VALID,0.0339617,VALID,19.2874,VALID,157,VALID,0.576882,
2004-11-28, 00:24:00,VALID,919.18,VALID,0.2,VALID,100,VALID,0.0509425,VALID,19.2842,VALID,163,VALID,0.455729,
2004-11-28, 00:25:00,VALID,919.177,VALID,0,VALID,100,VALID,0,VALID,19.3072,VALID,164,VALID,0.199751,
2004-11-28, 00:26:00,VALID,919.181,VALID,0.2,VALID,100,VALID,0,VALID,19.2998,VALID,164,VALID,0.0982143,
2004-11-28, 00:27:00,VALID,919.185,VALID,0.4,VALID,100,VALID,0,VALID,19.3328,VALID,93,VALID,0.454013,
2004-11-28, 00:28:00,VALID,919.174,VALID,0.4,VALID,100,VALID,0.0169808,VALID,19.3425,VALID,66,VALID,0.696555,
2004-11-28, 00:29:00,VALID,919.181,VALID,0.6,VALID,100,VALID,0.0339617,VALID,19.3326,VALID,76,VALID,0.494395,
2004-11-28, 00:30:00,VALID,919.175,VALID,0.6,VALID,100,VALID,0.0169808,VALID,19.3035,VALID,76,VALID,0.287538,
2004-11-28, 00:31:00,VALID,919.181,VALID,0.8,VALID,100,VALID,0.0339617,VALID,19.3194,VALID,76,VALID,0.00934103,
2004-11-28, 00:32:00,VALID,919.171,VALID,1,VALID,100,VALID,0.0169808,VALID,19.3428,VALID,75,VALID,0.0401278,
2004-11-28, 00:33:00,VALID,919.144,VALID,0.8,VALID,100,VALID,0.0169808,VALID,19.3164,VALID,355,VALID,0.424893,
2004-11-28, 00:34:00,VALID,919.118,VALID,0.6,VALID,100,VALID,0.0339617,VALID,19.3035,VALID,323,VALID,0.477983,
2004-11-28, 00:35:00,VALID,919.117,VALID,0.6,VALID,100,VALID,0.0339617,VALID,19.2906,VALID,283,VALID,0.434304,
2004-11-28, 00:36:00,VALID,919.106,VALID,0.4,VALID,100,VALID,0,VALID,19.3003,VALID,275,VALID,0.25372,
2004-11-28, 00:37:00,VALID,919.098,VALID,0.2,VALID,100,VALID,0.0169808,VALID,19.3035,VALID,275,VALID,0.0470655,
2004-11-28, 00:38:00,VALID,919.092,VALID,0.4,VALID,100,VALID,0,VALID,19.3231,VALID,271,VALID,0.196314,
2004-11-28, 00:39:00,VALID,919.075,VALID,0.2,VALID,100,VALID,0,VALID,19.3169,VALID,249,VALID,0.649554,
2004-11-28, 00:40:00,VALID,919.092,VALID,0,VALID,100,VALID,0.0169808,VALID,19.3361,VALID,233,VALID,0.395167,
2004-11-28, 00:41:00,VALID,919.084,VALID,0.2,VALID,100,VALID,0,VALID,19.3525,VALID,212,VALID,0.672053,
2004-11-28, 00:42:00,VALID,919.076,VALID,0.2,VALID,100,VALID,0,VALID,19.3554,VALID,221,VALID,0.635231,
2004-11-28, 00:43:00,VALID,919.088,VALID,0,VALID,100,VALID,0,VALID,19.3589,VALID,229,VALID,0.804492,
2004-11-28, 00:44:00,VALID,919.082,VALID,0.2,VALID,100,VALID,-0.0339617,VALID,19.3363,VALID,240,VALID,0.715774,
2004-11-28, 00:45:00,VALID,919.078,VALID,0,VALID,100,VALID,0,VALID,19.3587,VALID,242,VALID,0.26875,
2004-11-28, 00:46:00,VALID,919.068,VALID,0,VALID,100,VALID,0,VALID,19.3813,VALID,243,VALID,0.0286458,
2004-11-28, 00:47:00,VALID,919.07,VALID,0.2,VALID,100,VALID,-0.0509425,VALID,19.3793,VALID,236,VALID,0.542969,
2004-11-28, 00:48:00,VALID,919.076,VALID,0,VALID,100,VALID,-0.101885,VALID,19.3253,VALID,240,VALID,0.802144,
2004-11-28, 00:49:00,VALID,919.064,VALID,0.2,VALID,100,VALID,-0.101885,VALID,19.2767,VALID,234,VALID,0.848586,
2004-11-28, 00:50:00,VALID,919.074,VALID,0,VALID,100,VALID,-0.101885,VALID,19.2245,VALID,194,VALID,0.784722,
2004-11-28, 00:51:00,VALID,919.071,VALID,0.2,VALID,100,VALID,-0.0849042,VALID,19.2021,VALID,239,VALID,0.485156,
2004-11-28, 00:52:00,VALID,919.068,VALID,0,VALID,100,VALID,-0.101885,VALID,19.2093,VALID,188,VALID,0.279652,
2004-11-28, 00:53:00,VALID,919.063,VALID,0.2,VALID,100,VALID,-0.101885,VALID,19.1768,VALID,201,VALID,0.422965,
2004-11-28, 00:54:00,VALID,919.057,VALID,0,VALID,100,VALID,-0.101885,VALID,19.1701,VALID,219,VALID,0.101749,
2004-11-28, 00:55:00,VALID,919.053,VALID,0,VALID,100,VALID,-0.101885,VALID,19.1639,VALID,186,VALID,0.395275,
2004-11-28, 00:56:00,VALID,919.055,VALID,0.2,VALID,100,VALID,-0.101885,VALID,19.1539,VALID,197,VALID,0.280523,
2004-11-28, 00:57:00,VALID,919.04,VALID,0,VALID,100,VALID,-0.101885,VALID,19.1698,VALID,261,VALID,0.0339177,
2004-11-28, 00:58:00,VALID,919.036,VALID,0.2,VALID,100,VALID,-0.101885,VALID,19.2091,VALID,261,VALID,0.00729167,
2004-11-28, 00:59:00,VALID,919.014,VALID,0,VALID,100,VALID,-0.118866,VALID,19.1929,VALID,262,VALID,0.45788,
2004-11-28, 01:00:00,VALID,919.013,VALID,0.2,VALID,100,VALID,-0.0849042,VALID,19.1731,VALID,267,VALID,0.360828,
2004-11-28, 01:01:00,VALID,918.987,VALID,0,VALID,100,VALID,-0.101885,VALID,19.1892,VALID,272,VALID,0.300249,
2004-11-28, 01:02:00,VALID,918.99,VALID,0,VALID,100,VALID,0.0169808,VALID,19.1843,VALID,272,VALID,0.124818,
2004-11-28, 01:03:00,VALID,918.978,VALID,0.2,VALID,100,VALID,0,VALID,19.2071,VALID,272,VALID,0.260045,
2004-11-28, 01:04:00,VALID,918.974,VALID,0,VALID,100,VALID,0,VALID,19.2238,VALID,272,VALID,0.260653,
2004-11-28, 01:05:00,VALID,918.962,VALID,0,VALID,100,VALID,0,VALID,19.2268,VALID,294,VALID,0.343387,
2004-11-28, 01:06:00,VALID,918.97,VALID,0,VALID,100,VALID,0.0169808,VALID,19.2364,VALID,357,VALID,0.657158,
2004-11-28, 01:07:00,VALID,918.959,VALID,0.2,VALID,100,VALID,0,VALID,19.2528,VALID,1,VALID,0.719322,
2004-11-28, 01:08:00,VALID,918.945,VALID,0,VALID,100,VALID,0,VALID,19.2496,VALID,16,VALID,1.22347,
2004-11-28, 01:09:00,VALID,918.922,VALID,0,VALID,100,VALID,0,VALID,19.2074,VALID,29,VALID,1.10435,
2004-11-28, 01:10:00,VALID,918.906,VALID,0,VALID,100,VALID,0.0339617,VALID,19.2042,VALID,35,VALID,1.04833,
2004-11-28, 01:11:00,VALID,918.88,VALID,0,VALID,100,VALID,0.0169808,VALID,19.191,VALID,36,VALID,0.978423,
2004-11-28, 01:12:00,VALID,918.87,VALID,0.2,VALID,100,VALID,0.0339617,VALID,19.1783,VALID,41,VALID,0.919331,
2004-11-28, 01:13:00,VALID,918.851,VALID,0,VALID,100,VALID,0.0169808,VALID,19.188,VALID,38,VALID,0.902716,
2004-11-28, 01:14:00,VALID,918.84,VALID,0,VALID,100,VALID,0.0169808,VALID,19.1813,VALID,39,VALID,0.952217,
2004-11-28, 01:15:00,VALID,918.819,VALID,0,VALID,100,VALID,0.0169808,VALID,19.1753,VALID,33,VALID,0.958984,
2004-11-28, 01:16:00,VALID,918.807,VALID,0.2,VALID,100,VALID,0.0339617,VALID,19.1746,VALID,24,VALID,0.941134,
2004-11-28, 01:17:00,VALID,918.786,VALID,0,VALID,100,VALID,-0.0339617,VALID,19.1984,VALID,23,VALID,1.05433,
2004-11-28, 01:18:00,VALID,918.764,VALID,0,VALID,100,VALID,-0.0509425,VALID,19.1954,VALID,37,VALID,1.12007,
2004-11-28, 01:19:00,VALID,918.75,VALID,0,VALID,100,VALID,-0.101885,VALID,19.2059,VALID,40,VALID,1.44404,
2004-11-28, 01:20:00,VALID,918.743,VALID,0.2,VALID,100,VALID,-0.0849042,VALID,19.1855,VALID,38,VALID,1.28161,
2004-11-28, 01:21:00,VALID,918.731,VALID,0,VALID,100,VALID,-0.0509425,VALID,19.2153,VALID,32,VALID,1.09102,
2004-11-28, 01:22:00,VALID,918.709,VALID,0,VALID,100,VALID,-0.0679233,VALID,19.225,VALID,26,VALID,1.19648,
2004-11-28, 01:23:00,VALID,918.703,VALID,0,VALID,100,VALID,-0.0509425,VALID,19.2307,VALID,35,VALID,1.16788,
2004-11-28, 01:24:00,VALID,918.696,VALID,0.2,VALID,100,VALID,-0.0679233,VALID,19.2573,VALID,35,VALID,1.22874,
2004-11-28, 01:25:00,VALID,918.684,VALID,0,VALID,100,VALID,-0.0509425,VALID,19.2533,VALID,33,VALID,1.08073,
2004-11-28, 01:26:00,VALID,918.676,VALID,0,VALID,100,VALID,-0.0509425,VALID,19.26,VALID,34,VALID,1.29844,
2004-11-28, 01:27:00,VALID,918.667,VALID,0.2,VALID,100,VALID,0,VALID,19.2565,VALID,44,VALID,1.32631,
2004-11-28, 01:28:00,VALID,918.655,VALID,0,VALID,100,VALID,-0.0509425,VALID,19.2792,VALID,40,VALID,1.06736,
2004-11-28, 01:29:00,VALID,918.638,VALID,0,VALID,100,VALID,-0.0169808,VALID,19.2955,VALID,47,VALID,1.40898,
2004-11-28, 01:30:00,VALID,918.62,VALID,0,VALID,100,VALID,-0.0849042,VALID,19.3055,VALID,48,VALID,1.27235,
2004-11-28, 01:31:00,VALID,918.606,VALID,0.2,VALID,100,VALID,-0.0849042,VALID,19.3119,VALID,61,VALID,0.978237,
2004-11-28, 01:32:00,VALID,918.601,VALID,0,VALID,100,VALID,0.0169808,VALID,19.304,VALID,83,VALID,0.774164,
2004-11-28, 01:33:00,VALID,918.578,VALID,0,VALID,100,VALID,0.0509425,VALID,19.2876,VALID,112,VALID,0.774023,
2004-11-28, 01:34:00,VALID,918.567,VALID,0.2,VALID,100,VALID,0.0169808,VALID,19.2717,VALID,138,VALID,0.897104,
2004-11-28, 01:35:00,VALID,918.547,VALID,0,VALID,100,VALID,0.0849042,VALID,19.2616,VALID,143,VALID,0.919457,
2004-11-28, 01:36:00,VALID,918.545,VALID,0,VALID,100,VALID,0.0679233,VALID,19.2561,VALID,145,VALID,1.004,
2004-11-28, 01:37:00,VALID,918.544,VALID,0,VALID,100,VALID,0.0339617,VALID,19.2201,VALID,150,VALID,1.06631,
2004-11-28, 01:38:00,VALID,918.542,VALID,0,VALID,100,VALID,0.0849042,VALID,19.1912,VALID,159,VALID,0.799851,
2004-11-28, 01:39:00,VALID,918.535,VALID,0.2,VALID,100,VALID,0.0679233,VALID,19.1945,VALID,177,VALID,0.835273,
2004-11-28, 01:40:00,VALID,918.536,VALID,0,VALID,100,VALID,0.0509425,VALID,19.1843,VALID,171,VALID,1.47027,
2004-11-28, 01:41:00,VALID,918.529,VALID,0,VALID,100,VALID,0.0849042,VALID,19.1873,VALID,169,VALID,1.40737,
2004-11-28, 01:42:00,VALID,918.531,VALID,0,VALID,100,VALID,0.0849042,VALID,19.2004,VALID,166,VALID,1.37736,
2004-11-28, 01:43:00,VALID,918.527,VALID,0.2,VALID,100,VALID,0.0849042,VALID,19.1977,VALID,177,VALID,1.20617,
2004-11-28, 01:44:00,VALID,918.522,VALID,0,VALID,100,VALID,0.0679233,VALID,19.191,VALID,168,VALID,1.09872,
2004-11-28, 01:45:00,VALID,918.519,VALID,0,VALID,100,VALID,0.0679233,VALID,19.187,VALID,175,VALID,0.801258,
2004-11-28, 01:46:00,VALID,918.5,VALID,0.2,VALID,100,VALID,0.0509425,VALID,19.191,VALID,184,VALID,0.953869,
2004-11-28, 01:47:00,VALID,918.487,VALID,0,VALID,100,VALID,-0.0169808,VALID,19.1883,VALID,169,VALID,0.861049,
2004-11-28, 01:48:00,VALID,918.473,VALID,0,VALID,100,VALID,-0.0509425,VALID,19.1828,VALID,166,VALID,0.913876,
2004-11-28, 01:49:00,VALID,918.455,VALID,0,VALID,100,VALID,-0.0339617,VALID,19.1666,VALID,161,VALID,0.876906,
2004-11-28, 01:50:00,VALID,918.446,VALID,0.2,VALID,100,VALID,0,VALID,19.1502,VALID,156,VALID,0.811228,
2004-11-28, 01:51:00,VALID,918.42,VALID,0,VALID,100,VALID,-0.0169808,VALID,19.1438,VALID,154,VALID,1.01296,
2004-11-28, 01:52:00,VALID,918.404,VALID,0,VALID,100,VALID,-0.0509425,VALID,19.1346,VALID,144,VALID,1.08575,
2004-11-28, 01:53:00,VALID,918.382,VALID,0,VALID,100,VALID,-0.0679233,VALID,19.1249,VALID,142,VALID,1.28201,
2004-11-28, 01:54:00,VALID,918.354,VALID,0.2,VALID,100,VALID,-0.0849042,VALID,19.1216,VALID,147,VALID,0.96875,
2004-11-28, 01:55:00,VALID,918.346,VALID,0,VALID,100,VALID,0,VALID,19.1115,VALID,148,VALID,0.754687,
2004-11-28, 01:56:00,VALID,918.336,VALID,0,VALID,100,VALID,-0.0169808,VALID,19.1117,VALID,147,VALID,0.965298,
2004-11-28, 01:57:00,VALID,918.322,VALID,0,VALID,100,VALID,-0.0339617,VALID,19.0988,VALID,142,VALID,1.08066,
2004-11-28, 01:58:00,VALID,918.323,VALID,0.2,VALID,100,VALID,-0.0509425,VALID,19.0864,VALID,143,VALID,0.810138,
2004-11-28, 01:59:00,VALID,918.298,VALID,0,VALID,100,VALID,-0.0509425,VALID,19.0822,VALID,152,VALID,1.06707,
2004-11-28, 02:00:00,VALID,918.284,VALID,0,VALID,100,VALID,-0.0339617,VALID,19.0601,VALID,153,VALID,1.13411,
2004-11-28, 02:01:00,VALID,918.275,VALID,0,VALID,100,VALID,-0.0339617,VALID,19.0695,VALID,156,VALID,0.43936,
2004-11-28, 02:02:00,VALID,918.248,VALID,0.2,VALID,100,VALID,0,VALID,19.063,VALID,162,VALID,0.474564,
2004-11-28, 02:03:00,VALID,918.236,VALID,0,VALID,100,VALID,0,VALID,19.0589,VALID,155,VALID,0.738467,
2004-11-28, 02:04:00,VALID,918.217,VALID,0,VALID,100,VALID,0,VALID,19.0492,VALID,138,VALID,0.561942,
2004-11-28, 02:05:00,VALID,918.196,VALID,0,VALID,100,VALID,-0.0169808,VALID,19.0526,VALID,143,VALID,0.86814,
2004-11-28, 02:06:00,VALID,918.189,VALID,0.2,VALID,100,VALID,0,VALID,19.0526,VALID,146,VALID,0.921684,
2004-11-28, 02:07:00,VALID,918.159,VALID,0,VALID,100,VALID,0,VALID,19.0363,VALID,146,VALID,1.28652,
2004-11-28, 02:08:00,VALID,918.154,VALID,0,VALID,100,VALID,0,VALID,19.027,VALID,136,VALID,1.21621,
2004-11-28, 02:09:00,VALID,918.143,VALID,0,VALID,100,VALID,-0.0169808,VALID,19.0171,VALID,130,VALID,0.897372,
2004-11-28, 02:10:00,VALID,918.128,VALID,0.2,VALID,100,VALID,0,VALID,19.0233,VALID,152,VALID,0.594308,
2004-11-28, 02:11:00,VALID,918.109,VALID,0,VALID,100,VALID,0,VALID,19.0129,VALID,144,VALID,0.614955,
2004-11-28, 02:12:00,VALID,918.089,VALID,0,VALID,100,VALID,0,VALID,19.0238,VALID,142,VALID,0.93679,
2004-11-28, 02:13:00,VALID,918.056,VALID,0,VALID,100,VALID,0,VALID,19.0067,VALID,132,VALID,1.17533,
2004-11-28, 02:14:00,VALID,918.043,VALID,0,VALID,100,VALID,0.0169808,VALID,19.0003,VALID,139,VALID,1.18733,
2004-11-28, 02:15:00,VALID,918.026,VALID,0,VALID,100,VALID,0,VALID,18.9779,VALID,152,VALID,1.09215,
2004-11-28, 02:16:00,VALID,918.016,VALID,0.2,VALID,100,VALID,0,VALID,18.9784,VALID,148,VALID,0.989769,
2004-11-28, 02:17:00,VALID,917.995,VALID,0,VALID,100,VALID,0.0339617,VALID,18.9747,VALID,155,VALID,0.686298,
2004-11-28, 02:18:00,VALID,917.973,VALID,0,VALID,100,VALID,0,VALID,18.9754,VALID,144,VALID,1.14807,
2004-11-28, 02:19:00,VALID,917.95,VALID,0,VALID,100,VALID,0,VALID,18.9521,VALID,152,VALID,0.955031,
2004-11-28, 02:20:00,VALID,917.945,VALID,0,VALID,100,VALID,0,VALID,18.9456,VALID,145,VALID,0.950586,
2004-11-28, 02:21:00,VALID,917.928,VALID,0,VALID,100,VALID,0,VALID,18.9456,VALID,120,VALID,0.704993,
2004-11-28, 02:22:00,VALID,917.928,VALID,0.2,VALID,100,VALID,0,VALID,18.9431,VALID,136,VALID,0.820858,
2004-11-28, 02:23:00,VALID,917.909,VALID,0,VALID,100,VALID,0.0169808,VALID,18.9332,VALID,151,VALID,0.856076,
2004-11-28, 02:24:00,VALID,917.89,VALID,0,VALID,100,VALID,0.0169808,VALID,18.9362,VALID,154,VALID,0.911519,
2004-11-28, 02:25:00,VALID,917.888,VALID,0,VALID,100,VALID,0,VALID,18.9396,VALID,150,VALID,1.02986,
2004-11-28, 02:26:00,VALID,917.878,VALID,0,VALID,100,VALID,0,VALID,18.9232,VALID,122,VALID,1.16055,
2004-11-28, 02:27:00,VALID,917.865,VALID,0,VALID,100,VALID,0,VALID,18.9302,VALID,136,VALID,1.19774,
2004-11-28, 02:28:00,VALID,917.877,VALID,0,VALID,100,VALID,-0.0169808,VALID,18.9297,VALID,154,VALID,0.776042,
2004-11-28, 02:29:00,VALID,917.872,VALID,0.2,VALID,100,VALID,0,VALID,18.9498,VALID,144,VALID,1.84642,
2004-11-28, 02:30:00,VALID,917.868,VALID,0,VALID,100,VALID,0,VALID,18.9461,VALID,144,VALID,1.31516,
2004-11-28, 02:31:00,VALID,917.875,VALID,0,VALID,100,VALID,-0.0169808,VALID,18.9394,VALID,130,VALID,0.791243,
2004-11-28, 02:32:00,VALID,917.873,VALID,0,VALID,100,VALID,0.0169808,VALID,18.9429,VALID,140,VALID,1.37431,
2004-11-28, 02:33:00,VALID,917.886,VALID,0,VALID,100,VALID,0.0169808,VALID,18.9657,VALID,137,VALID,1.17224,
2004-11-28, 02:34:00,VALID,917.875,VALID,0,VALID,100,VALID,-0.0169808,VALID,18.9659,VALID,132,VALID,1.19624,
2004-11-28, 02:35:00,VALID,917.88,VALID,0.2,VALID,100,VALID,0,VALID,18.959,VALID,140,VALID,1.40572,
2004-11-28, 02:36:00,VALID,917.884,VALID,0,VALID,100,VALID,-0.0169808,VALID,18.9588,VALID,129,VALID,0.921693,
2004-11-28, 02:37:00,VALID,917.891,VALID,0,VALID,100,VALID,0,VALID,18.9689,VALID,138,VALID,1.05545,
2004-11-28, 02:38:00,VALID,917.885,VALID,0,VALID,100,VALID,-0.0169808,VALID,18.9687,VALID,139,VALID,1.38587,
2004-11-28, 02:39:00,VALID,917.885,VALID,0,VALID,100,VALID,0,VALID,18.9913,VALID,139,VALID,1.46246,
2004-11-28, 02:40:00,VALID,917.897,VALID,0.2,VALID,100,VALID,0,VALID,19.001,VALID,128,VALID,1.7077,
2004-11-28, 02:41:00,VALID,917.896,VALID,0,VALID,100,VALID,-0.0169808,VALID,19.0174,VALID,143,VALID,1.08212,
2004-11-28, 02:42:00,VALID,917.909,VALID,0,VALID,100,VALID,0,VALID,19.0238,VALID,128,VALID,0.814977,
2004-11-28, 02:43:00,VALID,917.915,VALID,0,VALID,100,VALID,0,VALID,19.0367,VALID,140,VALID,1.25781,
2004-11-28, 02:44:00,VALID,917.926,VALID,0,VALID,100,VALID,0,VALID,19.03,VALID,125,VALID,1.10268,
2004-11-28, 02:45:00,VALID,917.928,VALID,0,VALID,100,VALID,0,VALID,19.0392,VALID,120,VALID,1.27961,
2004-11-28, 02:46:00,VALID,917.938,VALID,0.2,VALID,100,VALID,0,VALID,19.0494,VALID,109,VALID,1.15552,
2004-11-28, 02:47:00,VALID,917.949,VALID,0,VALID,100,VALID,0,VALID,19.0489,VALID,129,VALID,1.40498,
2004-11-28, 02:48:00,VALID,917.954,VALID,0,VALID,100,VALID,0,VALID,19.0459,VALID,135,VALID,1.00454,
2004-11-28, 02:49:00,VALID,917.964,VALID,0,VALID,100,VALID,0,VALID,19.0524,VALID,128,VALID,1.05506,
2004-11-28, 02:50:00,VALID,917.959,VALID,0,VALID,100,VALID,0.0169808,VALID,19.0755,VALID,116,VALID,0.864524,
2004-11-28, 02:51:00,VALID,917.943,VALID,0.2,VALID,100,VALID,-0.0339617,VALID,19.0653,VALID,111,VALID,0.810902,
2004-11-28, 02:52:00,VALID,917.949,VALID,0,VALID,100,VALID,0,VALID,19.0695,VALID,124,VALID,1.01835,
2004-11-28, 02:53:00,VALID,917.946,VALID,0,VALID,100,VALID,0,VALID,19.0725,VALID,121,VALID,0.978087,
2004-11-28, 02:54:00,VALID,917.937,VALID,0,VALID,100,VALID,0.0169808,VALID,19.0693,VALID,127,VALID,1.17205,
2004-11-28, 02:55:00,VALID,917.934,VALID,0.2,VALID,100,VALID,0,VALID,19.0725,VALID,121,VALID,0.943496,
2004-11-28, 02:56:00,VALID,917.919,VALID,0,VALID,100,VALID,-0.0339617,VALID,19.0626,VALID,144,VALID,0.729833,
2004-11-28, 02:57:00,VALID,917.896,VALID,0,VALID,100,VALID,-0.0169808,VALID,19.0722,VALID,146,VALID,0.784784,
2004-11-28, 02:58:00,VALID,917.884,VALID,0,VALID,100,VALID,-0.0169808,VALID,19.066,VALID,151,VALID,0.865767,
2004-11-28, 02:59:00,VALID,917.868,VALID,0,VALID,100,VALID,0,VALID,19.0757,VALID,136,VALID,0.800409,
2004-11-28, 03:00:00,VALID,917.854,VALID,0,VALID,100,VALID,0,VALID,19.0755,VALID,141,VALID,0.743278,
2004-11-28, 03:01:00,VALID,917.836,VALID,0,VALID,100,VALID,-0.0169808,VALID,19.069,VALID,136,VALID,0.959794,
2004-11-28, 03:02:00,VALID,917.833,VALID,0,VALID,100,VALID,-0.0849042,VALID,19.0827,VALID,124,VALID,0.930537,
2004-11-28, 03:03:00,VALID,917.823,VALID,0.2,VALID,100,VALID,-0.0509425,VALID,19.0797,VALID,147,VALID,1.379,
2004-11-28, 03:04:00,VALID,917.816,VALID,0,VALID,100,VALID,-0.0509425,VALID,19.0792,VALID,151,VALID,0.820135,
2004-11-28, 03:05:00,VALID,917.814,VALID,0,VALID,100,VALID,-0.0509425,VALID,19.0859,VALID,132,VALID,1.08352,
2004-11-28, 03:06:00,VALID,917.807,VALID,0.2,VALID,100,VALID,-0.0509425,VALID,19.0891,VALID,135,VALID,1.07184,
2004-11-28, 03:07:00,VALID,917.802,VALID,0,VALID,100,VALID,-0.0679233,VALID,19.0923,VALID,139,VALID,1.1399,
2004-11-28, 03:08:00,VALID,917.792,VALID,0,VALID,100,VALID,-0.0339617,VALID,19.0827,VALID,138,VALID,0.841146,
2004-11-28, 03:09:00,VALID,917.781,VALID,0,VALID,100,VALID,-0.0679233,VALID,19.0829,VALID,153,VALID,0.665305,
2004-11-28, 03:10:00,VALID,917.775,VALID,0.2,VALID,100,VALID,-0.0509425,VALID,19.0856,VALID,143,VALID,0.518973,
2004-11-28, 03:11:00,VALID,917.761,VALID,0,VALID,100,VALID,-0.0679233,VALID,19.0824,VALID,137,VALID,0.489347,
2004-11-28, 03:12:00,VALID,917.753,VALID,0,VALID,100,VALID,-0.0679233,VALID,19.0891,VALID,135,VALID,0.609189,
2004-11-28, 03:13:00,VALID,917.742,VALID,0,VALID,100,VALID,-0.0509425,VALID,19.0789,VALID,134,VALID,0.703125,
2004-11-28, 03:14:00,VALID,917.741,VALID,0.2,VALID,100,VALID,-0.0339617,VALID,19.0894,VALID,138,VALID,0.634961,
2004-11-28, 03:15:00,VALID,917.743,VALID,0,VALID,100,VALID,-0.0679233,VALID,19.0827,VALID,134,VALID,0.914825,
2004-11-28, 03:16:00,VALID,917.735,VALID,0,VALID,100,VALID,-0.0169808,VALID,19.0792,VALID,127,VALID,0.908053,
2004-11-28, 03:17:00,VALID,917.728,VALID,0,VALID,100,VALID,0.0509425,VALID,19.071,VALID,128,VALID,0.68532,
2004-11-28, 03:18:00,VALID,917.724,VALID,0,VALID,100,VALID,0.0169808,VALID,19.0978,VALID,130,VALID,1.00213,
2004-11-28, 03:19:00,VALID,917.732,VALID,0.2,VALID,100,VALID,0.0679233,VALID,19.0743,VALID,125,VALID,0.453887,
2004-11-28, 03:20:00,VALID,917.724,VALID,0,VALID,100,VALID,0.0339617,VALID,19.081,VALID,113,VALID,0.419271,
2004-11-28, 03:21:00,VALID,917.72,VALID,0,VALID,100,VALID,0.0339617,VALID,19.0807,VALID,105,VALID,0.384014,
2004-11-28, 03:22:00,VALID,917.718,VALID,0,VALID,100,VALID,0.0679233,VALID,19.0874,VALID,70,VALID,0.509337,
2004-11-28, 03:23:00,VALID,917.715,VALID,0.2,VALID,100,VALID,0.0339617,VALID,19.1006,VALID,70,VALID,0.269717,
2004-11-28, 03:24:00,VALID,917.721,VALID,0,VALID,100,VALID,0.0509425,VALID,19.11,VALID,70,VALID,0.175305,
2004-11-28, 03:25:00,VALID,917.723,VALID,0,VALID,100,VALID,0.0849042,VALID,19.1135,VALID,70,VALID,0.321875,
2004-11-28, 03:26:00,VALID,917.706,VALID,0,VALID,100,VALID,0.0509425,VALID,19.0872,VALID,58,VALID,0.611421,
2004-11-28, 03:27:00,VALID,917.692,VALID,0,VALID,100,VALID,0.0679233,VALID,19.0777,VALID,38,VALID,0.820898,
2004-11-28, 03:28:00,VALID,917.697,VALID,0.2,VALID,100,VALID,0.0339617,VALID,19.0815,VALID,27,VALID,0.544141,
2004-11-28, 03:29:00,VALID,917.681,VALID,0,VALID,100,VALID,0.0169808,VALID,19.0584,VALID,25,VALID,0.418899,
2004-11-28, 03:30:00,VALID,917.675,VALID,0,VALID,100,VALID,0.0339617,VALID,19.0459,VALID,25,VALID,0.156432,
2004-11-28, 03:31:00,VALID,917.669,VALID,0,VALID,100,VALID,0.0339617,VALID,19.0325,VALID,27,VALID,0.303089,
2004-11-28, 03:32:00,VALID,917.664,VALID,0,VALID,100,VALID,0.0339617,VALID,19.0166,VALID,40,VALID,0.468023,
2004-11-28, 03:33:00,VALID,917.669,VALID,0,VALID,100,VALID,0.0509425,VALID,19.0298,VALID,40,VALID,0.414063,
2004-11-28, 03:34:00,VALID,917.661,VALID,0.2,VALID,100,VALID,0.0679233,VALID,19.0136,VALID,40,VALID,0.389844,
2004-11-28, 03:35:00,VALID,917.648,VALID,0,VALID,100,VALID,0.0509425,VALID,19.0037,VALID,40,VALID,0.298651,
2004-11-28, 03:36:00,VALID,917.658,VALID,0,VALID,100,VALID,0.0169808,VALID,19.0171,VALID,40,VALID,0.23941,
2004-11-28, 03:37:00,VALID,917.646,VALID,0,VALID,100,VALID,0.0509425,VALID,19.007,VALID,40,VALID,0.312322,
2004-11-28, 03:38:00,VALID,917.647,VALID,0,VALID,100,VALID,0,VALID,19.0102,VALID,40,VALID,0.201029,
2004-11-28, 03:39:00,VALID,917.652,VALID,0.2,VALID,100,VALID,0,VALID,19.0166,VALID,40,VALID,0.199963,
2004-11-28, 03:40:00,VALID,917.664,VALID,0,VALID,100,VALID,0.0509425,VALID,19.0099,VALID,49,VALID,0.284268,